Location: Clason Point
(40.8136°N, 73.8618°W)
Time: 09:14:16
(UTC+00:00)

Aureole 1 Rocket - Pass Details

Date: 16 September 2019
Orbit: 379 x 1383 km, 73.9° (Epoch: 19 October)

Event Time Altitude Azimuth Distance (km) Brightness Sun altitude
Rises 23:45:25 0° 345° (NNW) 3,539 7.3 -8.8°
Reaches altitude 10° 23:48:22 10° 351° (N) 2,413 6.4 -9.3°
Maximum altitude 23:53:26 42° 62° (ENE) 949 3.7 -10.3°
Enters shadow 23:57:05 12° 133° (SE) 1,752 4.9 -10.9°
